NKS401 KFLL-SKCL

Flight info

Callsign NKS401
Flight time N/A
Altitude 37000
Route REGAE2 URSUS UP406 UBSUX UQ101 KIKUM DCT ULQ ULQ4E
Aircraft A320/M-SDE3FGHIRWY/LB1

Departure

Time 2026-05-03 20:25
Airport Fort Lauderdale Hollywood International Airport (KFLL)

Arrival

Time N/A
Airport Alfonso Bonilla Aragon International Airport (SKCL)
Time Latitude Longitude Altitude Speed Heading
2026-05-03 20:15 26.06843 -80.14617 19 ft 0 kts 314°
2026-05-03 20:17 26.06857 -80.14632 19 ft 5 kts 316°
2026-05-03 20:17 26.06872 -80.14648 18 ft 0 kts 316°
2026-05-03 20:18 26.06876 -80.14652 18 ft 5 kts 317°
2026-05-03 20:19 26.06912 -80.14689 20 ft 8 kts 316°
2026-05-03 20:19 26.06948 -80.14737 20 ft 9 kts 291°
2026-05-03 20:19 26.06924 -80.14798 19 ft 9 kts 233°
2026-05-03 20:19 26.06909 -80.14863 20 ft 9 kts 277°
2026-05-03 20:20 26.06912 -80.14946 21 ft 15 kts 270°
2026-05-03 20:20 26.06913 -80.15069 23 ft 7 kts 270°
2026-05-03 20:20 26.06893 -80.15125 25 ft 11 kts 211°
2026-05-03 20:20 26.06794 -80.15130 23 ft 16 kts 176°
2026-05-03 20:21 26.06699 -80.15163 27 ft 12 kts 246°
2026-05-03 20:21 26.06696 -80.15257 26 ft 12 kts 270°
2026-05-03 20:21 26.06697 -80.15354 26 ft 13 kts 270°
2026-05-03 20:21 26.06697 -80.15465 25 ft 16 kts 270°
2026-05-03 20:22 26.06698 -80.15599 24 ft 19 kts 270°
2026-05-03 20:22 26.06679 -80.15731 25 ft 15 kts 219°
2026-05-03 20:22 26.06590 -80.15701 23 ft 13 kts 110°
2026-05-03 20:22 26.06588 -80.15682 24 ft 0 kts 91°
2026-05-03 20:24 26.06588 -80.15681 24 ft 2 kts 91°
2026-05-03 20:24 26.06587 -80.15495 25 ft 59 kts 90°
2026-05-03 20:24 26.06583 -80.14787 19 ft 120 kts 90°
2026-05-03 20:24 26.06578 -80.13695 158 ft 152 kts 90°
2026-05-03 20:25 26.06545 -80.12512 766 ft 156 kts 89°
2026-05-03 20:25 26.06538 -80.11292 1283 ft 161 kts 87°
2026-05-03 20:25 26.06578 -80.10027 1791 ft 166 kts 85°
2026-05-03 20:25 26.06625 -80.08727 2129 ft 172 kts 87°
2026-05-03 20:26 26.06655 -80.07331 2292 ft 194 kts 88°
2026-05-03 20:26 26.06677 -80.05748 2467 ft 215 kts 88°
2026-05-03 20:26 26.06696 -80.04005 2667 ft 238 kts 89°
2026-05-03 20:26 26.06714 -80.02071 2989 ft 262 kts 89°
2026-05-03 20:27 26.06728 -79.99987 3593 ft 274 kts 90°
2026-05-03 20:27 26.06722 -79.97829 3916 ft 282 kts 90°
2026-05-03 20:27 26.06701 -79.95648 3998 ft 282 kts 91°
2026-05-03 20:27 26.06674 -79.93465 4008 ft 281 kts 91°
2026-05-03 20:28 26.06648 -79.91283 4076 ft 285 kts 91°
2026-05-03 20:28 26.06621 -79.89066 4892 ft 287 kts 91°
2026-05-03 20:28 26.06593 -79.86831 5721 ft 291 kts 91°
2026-05-03 20:28 26.06564 -79.84554 6465 ft 297 kts 92°
2026-05-03 20:29 26.06421 -79.82247 7166 ft 301 kts 101°
2026-05-03 20:29 26.06063 -79.79933 7906 ft 305 kts 102°
2026-05-03 20:29 26.05698 -79.77591 8654 ft 309 kts 102°
2026-05-03 20:29 26.05329 -79.75223 9366 ft 314 kts 101°
2026-05-03 20:30 26.04955 -79.72813 10073 ft 318 kts 101°
2026-05-03 20:30 26.04567 -79.70332 10403 ft 336 kts 101°
2026-05-03 20:30 26.04151 -79.67682 10560 ft 359 kts 101°
2026-05-03 20:30 26.03704 -79.64894 10925 ft 371 kts 104°
2026-05-03 20:31 26.03054 -79.62107 11536 ft 375 kts 107°
2026-05-03 20:31 26.02376 -79.59294 12144 ft 379 kts 107°
2026-05-03 20:31 26.01694 -79.56454 12736 ft 382 kts 107°
2026-05-03 20:31 26.00800 -79.53674 13306 ft 382 kts 120°
2026-05-03 20:32 25.99354 -79.51210 13869 ft 380 kts 134°
2026-05-03 20:32 25.97439 -79.49211 14372 ft 377 kts 148°
2026-05-03 20:32 25.95178 -79.47775 14895 ft 373 kts 162°
2026-05-03 20:32 25.92706 -79.46958 15400 ft 369 kts 174°
2026-05-03 20:33 25.90174 -79.46427 15924 ft 372 kts 174°
2026-05-03 20:33 25.87652 -79.45933 16432 ft 372 kts 178°
2026-05-03 20:33 25.85045 -79.45905 16909 ft 369 kts 190°
2026-05-03 20:33 25.82574 -79.46463 17411 ft 366 kts 201°
2026-05-03 20:34 25.80245 -79.47571 17921 ft 364 kts 212°
2026-05-03 20:34 25.78105 -79.49084 18423 ft 365 kts 216°
2026-05-03 20:34 25.75975 -79.50635 18873 ft 367 kts 216°
2026-05-03 20:34 25.73831 -79.52191 19349 ft 369 kts 216°
2026-05-03 20:35 25.71678 -79.53751 19819 ft 371 kts 216°
2026-05-03 20:35 25.69510 -79.55320 20289 ft 372 kts 216°
2026-05-03 20:35 25.67372 -79.56944 20745 ft 372 kts 221°
2026-05-03 20:35 25.65342 -79.58734 21205 ft 374 kts 221°
2026-05-03 20:36 25.63295 -79.60531 21662 ft 376 kts 221°
2026-05-03 20:36 25.61245 -79.62325 22091 ft 377 kts 221°
2026-05-03 20:36 25.59173 -79.64136 22508 ft 379 kts 221°
2026-05-03 20:36 25.57097 -79.65949 22894 ft 382 kts 221°
2026-05-03 20:37 25.55002 -79.67778 23271 ft 384 kts 221°
2026-05-03 20:37 25.52899 -79.69618 23665 ft 386 kts 221°
2026-05-03 20:37 25.50786 -79.71470 24008 ft 388 kts 221°
2026-05-03 20:37 25.48667 -79.73327 24342 ft 389 kts 221°
2026-05-03 20:38 25.46538 -79.75190 24671 ft 391 kts 221°
2026-05-03 20:38 25.44399 -79.77055 25002 ft 393 kts 221°
2026-05-03 20:38 25.42242 -79.78935 25346 ft 395 kts 221°
2026-05-03 20:38 25.40071 -79.80803 25692 ft 397 kts 219°
2026-05-03 20:39 25.37641 -79.82302 26026 ft 405 kts 207°
2026-05-03 20:39 25.34907 -79.83176 26347 ft 415 kts 194°
2026-05-03 20:39 25.31989 -79.83324 26656 ft 427 kts 181°
2026-05-03 20:39 25.29034 -79.82693 26952 ft 439 kts 170°
2026-05-03 20:40 25.26136 -79.81756 27212 ft 442 kts 169°
2026-05-03 20:40 25.23180 -79.80800 27521 ft 444 kts 170°
2026-05-03 20:40 25.20209 -79.79847 27840 ft 445 kts 170°
2026-05-03 20:40 25.17227 -79.78896 28183 ft 447 kts 170°
2026-05-03 20:41 25.14235 -79.77945 28520 ft 448 kts 170°
2026-05-03 20:41 25.11233 -79.76990 28848 ft 450 kts 170°
2026-05-03 20:41 25.08213 -79.76026 29184 ft 451 kts 170°
2026-05-03 20:41 25.05206 -79.75063 29627 ft 450 kts 170°
2026-05-03 20:42 25.02205 -79.74100 30103 ft 449 kts 171°
2026-05-03 20:42 24.99211 -79.73143 30489 ft 447 kts 171°
2026-05-03 20:42 24.96214 -79.72188 30834 ft 447 kts 171°
2026-05-03 20:42 24.93229 -79.71238 31195 ft 446 kts 171°
2026-05-03 20:43 24.90257 -79.70220 31551 ft 451 kts 166°
2026-05-03 20:43 24.87391 -79.68740 31898 ft 460 kts 157°
2026-05-03 20:43 24.84665 -79.66853 32240 ft 463 kts 154°
2026-05-03 20:43 24.81948 -79.64931 32594 ft 464 kts 154°
2026-05-03 20:44 24.79238 -79.63013 32944 ft 464 kts 155°
2026-05-03 20:44 24.76520 -79.61095 33295 ft 464 kts 155°
2026-05-03 20:44 24.73803 -79.59181 33647 ft 464 kts 155°
2026-05-03 20:44 24.71081 -79.57268 33986 ft 464 kts 155°
2026-05-03 20:45 24.68354 -79.55353 34285 ft 464 kts 155°
2026-05-03 20:45 24.65636 -79.53446 34579 ft 464 kts 155°
2026-05-03 20:45 24.62944 -79.51555 34803 ft 465 kts 155°
2026-05-03 20:45 24.60210 -79.49636 35017 ft 466 kts 155°
2026-05-03 20:46 24.57482 -79.47721 35265 ft 466 kts 155°
2026-05-03 20:46 24.54742 -79.45797 35532 ft 466 kts 155°
2026-05-03 20:46 24.52014 -79.43882 35806 ft 466 kts 155°
2026-05-03 20:46 24.49283 -79.41967 36069 ft 466 kts 155°
2026-05-03 20:47 24.46551 -79.40058 36318 ft 465 kts 155°
2026-05-03 20:47 24.43819 -79.38152 36575 ft 465 kts 155°
2026-05-03 20:47 24.41089 -79.36250 36831 ft 465 kts 156°
2026-05-03 20:47 24.38354 -79.34342 36987 ft 465 kts 155°
2026-05-03 20:48 24.35615 -79.32431 37019 ft 470 kts 155°